GW5008 Weather Reports


time (UTC)temp
C
wind
direction
speed
KPH
gust
KPH
rain 1hr
cm
rain 24hr
cm
rain mn
cm
humidity
%
barometer
mb
20260504120225 9 253 0.0 9.7 0.00 0.00 0.00 49 1010.8
20260504110646 7 87 6.4 6.4 0.00 0.00 0.00 53 1010.9
20260504110143 7 323 4.8 4.8 0.00 0.00 0.00 55 1011.2
20260504100609 5 287 1.6 3.2 0.00 0.00 0.00 61 1010.8
20260504100107 5 201 1.6 3.2 0.00 0.00 0.00 61 1010.7
20260504082002 5 172 6.4 6.4 0.00 0.00 0.00 63 1011.2
20260504081500 5 90 6.4 9.7 0.00 0.00 0.00 63 1011.2
20260504080955 5 174 3.2 4.8 0.00 0.00 0.00 63 1011.3
20260504080452 5 284 0.0 4.8 0.00 0.00 0.00 63 1011.3
20260504050305 6 95 3.2 4.8 0.00 0.00 0.00 59 1011.3
20260504045803 6 48 0.0 4.8 0.00 0.00 0.00 59 1011.4
20260504045304 6 258 0.0 1.6 0.00 0.00 0.00 59 1011.4
20260504044800 6 37 1.6 6.4 0.00 0.00 0.00 59 1011.4
20260504044257 5 224 0.0 4.8 0.00 0.00 0.00 60 1011.4
20260504043754 5 119 0.0 3.2 0.00 0.00 0.00 60 1011.4
20260504043251 5 209 0.0 1.6 0.00 0.00 0.00 60 1011.4
20260504042749 6 94 0.0 1.6 0.00 0.00 0.00 60 1011.3
20260504042245 5 92 0.0 0.0 0.00 0.00 0.00 60 1011.3
20260504041741 6 83 1.6 4.8 0.00 0.00 0.00 59 1011.3
20260504041237 6 82 1.6 3.2 0.00 0.00 0.00 58 1011.0
20260504040734 6 129 1.6 3.2 0.00 0.00 0.00 59 1011.0
20260504040231 6 138 0.0 1.6 0.00 0.00 0.00 59 1011.2
20260504035727 6 269 1.6 1.6 0.00 0.00 0.00 60 1011.3
20260504035225 6 139 0.0 1.6 0.00 0.00 0.00 58 1011.2
20260504034722 6 277 0.0 4.8 0.00 0.00 0.00 59 1011.2
20260504034219 6 54 0.0 1.6 0.00 0.00 0.00 59 1011.2
20260504033717 6 76 0.0 4.8 0.00 0.00 0.00 58 1011.2
20260504033214 6 85 1.6 3.2 0.00 0.00 0.00 58 1011.2
20260504032711 6 74 1.6 3.2 0.00 0.00 0.00 57 1011.3
20260504032208 6 75 0.0 1.6 0.00 0.00 0.00 59 1011.2
20260504031705 6 80 1.6 1.6 0.00 0.00 0.00 58 1011.2
20260504031201 6 193 0.0 3.2 0.00 0.00 0.00 57 1011.4
20260504030658 6 98 0.0 3.2 0.00 0.00 0.00 57 1011.0
20260504030155 6 81 0.0 4.8 0.00 0.00 0.00 56 1011.3
20260504025651 6 308 0.0 1.6 0.00 0.00 0.00 57 1011.4
20260504025148 6 124 0.0 0.0 0.00 0.00 0.00 57 1011.2
20260504024646 6 352 0.0 1.6 0.00 0.00 0.00 56 1011.5
20260504024142 6 111 3.2 3.2 0.00 0.00 0.00 55 1011.5
20260504023639 6 58 0.0 4.8 0.00 0.00 0.00 56 1011.4
20260504023135 6 42 0.0 0.0 0.00 0.00 0.00 58 1011.4
20260504022631 6 74 1.6 3.2 0.00 0.00 0.00 55 1011.5
20260504022127 6 27 0.0 3.2 0.00 0.00 0.00 55 1011.4
20260504021625 6 181 0.0 1.6 0.00 0.00 0.00 56 1011.3
20260504021121 6 355 0.0 0.0 0.00 0.00 0.00 57 1011.4
20260504020619 6 95 1.6 1.6 0.00 0.00 0.00 55 1011.3
20260504020115 6 75 0.0 3.2 0.00 0.00 0.00 55 1011.0
20260504015611 6 72 0.0 1.6 0.00 0.00 0.00 54 1011.4
20260504015107 6 91 0.0 3.2 0.00 0.00 0.00 54 1011.2
20260504014603 6 79 0.0 1.6 0.00 0.00 0.00 54 1011.0
20260504014101 6 235 0.0 3.2 0.00 0.00 0.00 55 1011.3
20260504013558 7 130 0.0 3.2 0.00 0.00 0.00 53 1011.3
20260504013055 7 71 0.0 1.6 0.00 0.00 0.00 55 1011.3
20260504012552 6 86 0.0 4.8 0.00 0.00 0.00 54 1011.3
20260504012050 7 355 0.0 1.6 0.00 0.00 0.00 53 1011.2
20260504011547 6 108 0.0 0.0 0.00 0.00 0.00 53 1010.9
20260504011043 6 88 0.0 1.6 0.00 0.00 0.00 52 1011.2
20260504010539 7 86 0.0 0.0 0.00 0.00 0.00 52 1010.9
20260504010035 7 118 0.0 0.0 0.00 0.00 0.00 52 1010.9
20260504005532 7 355 0.0 0.0 0.00 0.00 0.00 52 1010.9
20260504005030 7 115 3.2 3.2 0.00 0.00 0.00 52 1010.8
20260504004527 7 62 0.0 1.6 0.00 0.00 0.00 51 1010.7
20260504004024 8 82 1.6 3.2 0.00 0.00 0.00 50 1010.8
20260504003520 8 103 3.2 6.4 0.00 0.00 0.00 48 1010.6
20260504003017 8 130 3.2 3.2 0.00 0.00 0.00 48 1010.6
20260504002514 8 103 3.2 4.8 0.00 0.00 0.00 47 1010.4
20260504002011 8 97 0.0 3.2 0.00 0.00 0.00 47 1010.5
20260504001509 8 114 4.8 6.4 0.00 0.00 0.00 46 1010.4
20260504001005 9 80 0.0 4.8 0.00 0.00 0.00 46 1010.5
20260504000502 9 79 0.0 9.7 0.00 0.00 0.00 46 1010.4
20260503235959 9 71 3.2 6.4 0.00 0.00 0.00 45 1010.4
20260503235457 9 96 4.8 6.4 0.00 0.00 0.00 45 1010.3
20260503234954 10 99 4.8 9.7 0.00 0.00 0.00 43 1010.4
20260503234452 10 89 1.6 11.3 0.00 0.00 0.00 44 1010.3
20260503233950 10 62 3.2 9.7 0.00 0.00 0.00 42 1010.2
20260503233446 11 68 8.0 12.9 0.00 0.00 0.00 41 1010.2
20260503232942 11 63 3.2 11.3 0.00 0.00 0.00 41 1010.3
20260503232439 11 126 9.7 12.9 0.00 0.00 0.00 42 1010.2
20260503231937 10 27 3.2 9.7 0.00 0.00 0.00 43 1010.2
20260503231434 10 61 4.8 16.1 0.00 0.00 0.00 44 1010.3
20260503230931 10 51 6.4 14.5 0.00 0.00 0.00 43 1010.2
20260503230427 10 56 4.8 9.7 0.00 0.00 0.00 43 1010.2
20260503225925 10 57 6.4 9.7 0.00 0.00 0.00 43 1010.3
20260503225422 10 65 11.3 16.1 0.00 0.00 0.00 41 1010.1
20260503224917 10 88 9.7 14.5 0.00 0.00 0.00 42 1010.0
20260503224414 10 339 6.4 12.9 0.00 0.00 0.00 43 1010.1
20260503223912 10 81 9.7 12.9 0.00 0.00 0.00 42 1010.1
20260503223410 10 67 8.0 14.5 0.00 0.00 0.00 43 1009.9
20260503222910 10 82 8.0 22.5 0.00 0.00 0.00 42 1010.0
20260503222409 10 316 4.8 11.3 0.00 0.00 0.00 42 1009.8
20260503221907 10 22 6.4 11.3 0.00 0.00 0.00 43 1010.1
20260503221405 10 79 11.3 16.1 0.00 0.00 0.00 42 1010.2
20260503220901 10 80 14.5 16.1 0.00 0.00 0.00 43 1010.2
20260503220358 11 80 12.9 16.1 0.00 0.00 0.00 42 1010.0
20260503215855 11 104 9.7 17.7 0.00 0.00 0.00 41 1010.2
20260503215352 11 139 6.4 12.9 0.00 0.00 0.00 43 1010.1
20260503214849 11 100 14.5 16.1 0.00 0.00 0.00 43 1010.1
20260503214347 10 80 6.4 11.3 0.00 0.00 0.00 43 1010.1
20260503213844 10 87 4.8 24.1 0.00 0.00 0.00 44 1010.3
20260503213341 10 171 8.0 17.7 0.00 0.00 0.00 44 1010.2
20260503212838 10 265 3.2 22.5 0.00 0.00 0.00 46 1010.0
20260503212336 10 87 12.9 24.1 0.00 0.00 0.00 43 1010.0
20260503211833 11 162 6.4 14.5 0.00 0.00 0.00 42 1010.1
20260503211330 11 150 3.2 12.9 0.00 0.00 0.00 46 1010.0
20260503210825 10 68 12.9 16.1 0.00 0.00 0.00 45 1010.0
20260503210322 10 69 4.8 12.9 0.00 0.00 0.00 47 1010.1
20260503205817 10 86 11.3 17.7 0.00 0.00 0.00 44 1010.0
20260503205314 10 49 8.0 22.5 0.00 0.00 0.00 44 1010.0
20260503204811 10 153 4.8 17.7 0.00 0.00 0.00 45 1009.9
20260503204309 10 96 12.9 24.1 0.00 0.00 0.00 43 1010.1
20260503203806 10 72 6.4 24.1 0.00 0.00 0.00 44 1010.0
20260503203303 10 66 9.7 16.1 0.00 0.00 0.00 44 1010.1
20260503202800 10 63 3.2 11.3 0.00 0.00 0.00 45 1010.0
20260503202258 11 83 11.3 12.9 0.00 0.00 0.00 43 1010.0
20260503201755 11 90 4.8 22.5 0.00 0.00 0.00 44 1010.0
20260503201252 11 113 14.5 25.7 0.00 0.00 0.00 42 1009.8
20260503200749 11 80 6.4 16.1 0.00 0.00 0.00 42 1009.9
20260503200245 10 88 9.7 20.9 0.00 0.00 0.00 44 1009.8
20260503195742 11 119 9.7 20.9 0.00 0.00 0.00 42 1010.1
20260503195239 11 140 8.0 22.5 0.00 0.00 0.00 42 1009.9
20260503194737 12 253 12.9 24.1 0.00 0.00 0.00 41 1010.1
20260503194232 12 86 1.6 12.9 0.00 0.00 0.00 42 1010.1
20260503193729 11 83 9.7 20.9 0.00 0.00 0.00 40 1010.1
20260503193225 11 118 14.5 22.5 0.00 0.00 0.00 39 1010.1
20260503192721 12 69 16.1 27.4 0.00 0.00 0.00 39 1010.2
20260503192216 11 85 9.7 20.9 0.00 0.00 0.00 40 1010.1
20260503191713 11 65 11.3 27.4 0.00 0.00 0.00 43 1010.1
20260503191210 11 71 11.3 35.4 0.00 0.00 0.00 41 1010.3
20260503190707 11 109 14.5 20.9 0.00 0.00 0.00 39 1010.4
20260503190204 12 63 3.2 14.5 0.00 0.00 0.00 40 1010.4
20260503185701 10 106 4.8 16.1 0.00 0.00 0.00 44 1010.5
20260503185156 11 182 6.4 9.7 0.00 0.00 0.00 41 1010.6
20260503184651 10 75 11.3 17.7 0.00 0.00 0.00 41 1010.6
20260503184148 10 88 1.6 17.7 0.00 0.00 0.00 42 1010.7
20260503183644 11 77 20.9 29.0 0.00 0.00 0.00 38 1010.7
20260503183142 11 246 9.7 30.6 0.00 0.00 0.00 38 1010.6
20260503182639 12 104 8.0 16.1 0.00 0.00 0.00 39 1010.6
20260503182139 11 181 8.0 12.9 0.00 0.00 0.00 41 1010.8
20260503181635 11 144 14.5 30.6 0.00 0.00 0.00 39 1010.7
20260503181131 11 66 6.4 24.1 0.00 0.00 0.00 41 1010.8
20260503180628 10 48 8.0 17.7 0.00 0.00 0.00 40 1010.8
20260503180126 10 71 8.0 20.9 0.00 0.00 0.00 41 1010.8
20260503175622 10 114 20.9 33.8 0.00 0.00 0.00 40 1011.2
20260503175120 10 96 6.4 17.7 0.00 0.00 0.00 40 1010.9
20260503174616 10 40 3.2 16.1 0.00 0.00 0.00 41 1011.0
20260503174114 9 51 11.3 29.0 0.00 0.00 0.00 42 1011.3
20260503173608 9 83 14.5 22.5 0.00 0.00 0.00 42 1011.3
20260503173105 8 73 4.8 9.7 0.00 0.00 0.00 42 1011.5
20260503172602 10 140 9.7 16.1 0.00 0.00 0.00 43 1011.2
20260503172059 10 166 14.5 17.7 0.00 0.00 0.00 41 1011.3
20260503171555 9 137 8.0 22.5 0.00 0.00 0.00 44 1011.3
20260503171053 10 141 17.7 25.7 0.00 0.00 0.00 45 1011.4
20260503170549 9 115 8.0 14.5 0.00 0.00 0.00 46 1011.7
20260503150942 6 75 3.2 22.5 0.00 0.00 0.00 51 1012.0
20260503150439 6 220 8.0 25.7 0.00 0.00 0.00 51 1012.0
20260503131331 4 142 14.5 20.9 0.00 0.00 0.00 55 1012.4
20260503130829 4 83 12.9 27.4 0.00 0.00 0.00 56 1012.2
20260503130326 4 47 6.4 14.5 0.00 0.00 0.00 52 1012.3